World > North America > United States > Ohio > Manchester  

Manchester, OH Hourly Weather Updates

Feedback E-mail the Weather

Quick Clicks

Manchester, OH Weather Maps

°F °C°F °C
Manchester Weather Map
UTC Time: 5/22/2024, 12:29
Your Time:

Manchester, OH Regional Weather

Expires:202405221300;;658746
ASUS41 KCLE 221212
RWRCLE
OHIO REGIONAL WEATHER ROUNDUP
NATIONAL WEATHER SERVICE WILMINGTON, OH
800 AM EDT WED MAY 22 2024

NOTE: "FAIR" INDICATES FEW OR NO CLOUDS BELOW 12,000 FEET WITH NO
SIGNIFICANT WEATHER AND/OR OBSTRUCTIONS TO VISIBILITY.


OHZ042-051>053-060>062-070>072-077>081-221300-
  SOUTHWEST OHIO
  
CITY           SKY/WX    TMP DP  RH WIND       PRES   REMARKS
CINC-COVINGTON TSTM      67  57  70 NW18G25   29.94R                  
CINC-LUNKEN    PTSUNNY   68  65  90 MISG      29.91R                  
HAMILTON       RAIN      70  66  87 VRB5      29.90R FOG              
DAYTON         CLOUDY    74  63  68 S20G32    29.85R                  
WRIGHT-PAT AFB CLOUDY    74  62  66 S22       29.86R                  
DAYTON GENERAL LGT RAIN  70  62  76 SW13      29.88R                  
WILMINGTON     LGT RAIN  70  62  76 SW10      29.89R                  
$$


SKY/WX - Weather  TMP - Temperature  DP - Dew Point  RH - Humidity
WIND - Wind Direction/Speed PRES - Barometric Pressure VSB - Visibility
WCI - Wind Chill Index E13G22 Wind - East Wind 13 mph/Gusts of 22 mph

Trending Headlines

Trending Entertainment Headlines

Manchester Radar Loop

Use the map search tool if you want to place a location marker on the radar map...

Manchester Quick Facts

National Two Day Weather Forecast


E-mail the Manchester Weather Forecast

Voice your opinion or tell us about page issues...